contact:dominique.lefevre@mio.osupytheas.fr, maurice.libes@osupytheas.fr, didier.mallarino@osupytheas.fr
Project:EMSO http://www.emso-fr.org/EMSO-France
Depth: 2436.0 m
Title:EMSO Ligure Ouest : Data MII capteur MICROCAT
DateTime_Computer,Latitude,Longitude,Temperature,Conductivity,Pressure,DateTime_Instrument
DateTime_Computer,Latitude,Longitude,degC,S m-1,dbar,DateTime_Instrument
2019-08-06T00:00:11Z,42.805,6.029,13.2967,4.59968,2469.97,2019-8-06T02:00:31Z
2019-08-06T00:03:14Z,42.805,6.029,13.2965,4.59986,2469.956,2019-8-06T02:03:34Z
2019-08-06T00:06:18Z,42.805,6.029,13.2964,4.59973,2469.984,2019-8-06T02:06:38Z
2019-08-06T00:09:21Z,42.805,6.029,13.2969,4.59986,2469.984,2019-8-06T02:09:41Z
2019-08-06T00:12:24Z,42.805,6.029,13.2964,4.59976,2469.993,2019-8-06T02:12:44Z
2019-08-06T00:15:27Z,42.805,6.029,13.2964,4.59974,2470.017,2019-8-06T02:15:47Z
2019-08-06T00:18:31Z,42.805,6.029,13.2961,4.59972,2469.97,2019-8-06T02:18:51Z
2019-08-06T00:21:34Z,42.805,6.029,13.2964,4.59971,2469.984,2019-8-06T02:21:54Z
2019-08-06T00:24:37Z,42.805,6.029,13.2967,4.59972,2469.984,2019-8-06T02:24:57Z
2019-08-06T00:27:41Z,42.805,6.029,13.2967,4.59970,2469.984,2019-8-06T02:28:01Z
2019-08-06T00:30:44Z,42.805,6.029,13.2961,4.59967,2469.97,2019-8-06T02:31:04Z
2019-08-06T00:33:47Z,42.805,6.029,13.2961,4.59968,2469.97,2019-8-06T02:34:07Z
2019-08-06T00:36:50Z,42.805,6.029,13.2962,4.59971,2469.984,2019-8-06T02:37:10Z
2019-08-06T00:39:54Z,42.805,6.029,13.2963,4.59973,2469.97,2019-8-06T02:40:14Z
2019-08-06T00:42:57Z,42.805,6.029,13.2967,4.59968,2469.96,2019-8-06T02:43:17Z
2019-08-06T00:46:00Z,42.805,6.029,13.2961,4.59969,2469.97,2019-8-06T02:46:20Z
2019-08-06T00:49:03Z,42.805,6.029,13.2960,4.59970,2469.947,2019-8-06T02:49:23Z
2019-08-06T00:52:07Z,42.805,6.029,13.2966,4.59975,2469.984,2019-8-06T02:52:27Z
2019-08-06T00:55:10Z,42.805,6.029,13.2964,4.59968,2469.947,2019-8-06T02:55:30Z
2019-08-06T00:58:13Z,42.805,6.029,13.2961,4.59970,2469.96,2019-8-06T02:58:33Z
2019-08-06T01:01:17Z,42.805,6.029,13.2960,4.59971,2469.96,2019-8-06T03:01:37Z
2019-08-06T01:04:20Z,42.805,6.029,13.2963,4.59968,2469.96,2019-8-06T03:04:40Z
2019-08-06T01:07:23Z,42.805,6.029,13.2961,4.59966,2469.984,2019-8-06T03:07:43Z
2019-08-06T01:10:27Z,42.805,6.029,13.2961,4.59966,2469.96,2019-8-06T03:10:47Z
2019-08-06T01:13:30Z,42.805,6.029,13.2959,4.59968,2469.947,2019-8-06T03:13:50Z
2019-08-06T01:16:33Z,42.805,6.029,13.2966,4.59971,2469.937,2019-8-06T03:16:53Z
2019-08-06T01:19:36Z,42.805,6.029,13.2965,4.59984,2469.923,2019-8-06T03:19:56Z
2019-08-06T01:22:40Z,42.805,6.029,13.2964,4.59973,2469.96,2019-8-06T03:23:00Z
2019-08-06T01:25:43Z,42.805,6.029,13.2962,4.59972,2469.947,2019-8-06T03:26:03Z
2019-08-06T01:28:46Z,42.805,6.029,13.2966,4.59970,2469.923,2019-8-06T03:29:06Z
2019-08-06T01:31:49Z,42.805,6.029,13.2964,4.59973,2469.96,2019-8-06T03:32:09Z
2019-08-06T01:34:53Z,42.805,6.029,13.2966,4.59989,2469.937,2019-8-06T03:35:13Z
2019-08-06T01:37:56Z,42.805,6.029,13.2958,4.59966,2469.923,2019-8-06T03:38:16Z
2019-08-06T01:40:59Z,42.805,6.029,13.2958,4.59966,2469.947,2019-8-06T03:41:19Z
2019-08-06T01:44:03Z,42.805,6.029,13.2961,4.59967,2469.937,2019-8-06T03:44:23Z
2019-08-06T01:47:06Z,42.805,6.029,13.2962,4.59970,2469.9,2019-8-06T03:47:26Z
2019-08-06T01:50:09Z,42.805,6.029,13.2967,4.59966,2469.937,2019-8-06T03:50:29Z
2019-08-06T01:53:13Z,42.805,6.029,13.2962,4.59971,2469.947,2019-8-06T03:53:33Z
2019-08-06T01:56:16Z,42.805,6.029,13.2961,4.59969,2469.97,2019-8-06T03:56:36Z
2019-08-06T01:59:19Z,42.805,6.029,13.2967,4.59972,2469.937,2019-8-06T03:59:39Z
2019-08-06T02:02:23Z,42.805,6.029,13.2966,4.59969,2469.914,2019-8-06T04:02:43Z
2019-08-06T02:05:26Z,42.805,6.029,13.2967,4.59966,2469.914,2019-8-06T04:05:46Z
2019-08-06T02:08:29Z,42.805,6.029,13.2968,4.59967,2469.9,2019-8-06T04:08:49Z
2019-08-06T02:11:32Z,42.805,6.029,13.2959,4.59984,2469.923,2019-8-06T04:11:52Z
2019-08-06T02:14:36Z,42.805,6.029,13.2957,4.59973,2469.947,2019-8-06T04:14:56Z
2019-08-06T02:17:39Z,42.805,6.029,13.2965,4.59969,2469.937,2019-8-06T04:17:59Z
2019-08-06T02:20:42Z,42.805,6.029,13.2964,4.59973,2469.937,2019-8-06T04:21:02Z
2019-08-06T02:23:46Z,42.805,6.029,13.2960,4.59964,2469.96,2019-8-06T04:24:06Z
2019-08-06T02:26:49Z,42.805,6.029,13.2960,4.59964,2469.9,2019-8-06T04:27:09Z
2019-08-06T02:29:52Z,42.805,6.029,13.2964,4.59967,2469.923,2019-8-06T04:30:12Z
2019-08-06T02:32:56Z,42.805,6.029,13.2961,4.59968,2469.923,2019-8-06T04:33:16Z
2019-08-06T02:35:59Z,42.805,6.029,13.2961,4.59970,2469.937,2019-8-06T04:36:19Z
2019-08-06T02:39:02Z,42.805,6.029,13.2966,4.59977,2469.923,2019-8-06T04:39:22Z
2019-08-06T02:42:05Z,42.805,6.029,13.2965,4.59976,2469.914,2019-8-06T04:42:25Z
2019-08-06T02:45:09Z,42.805,6.029,13.2965,4.59981,2469.876,2019-8-06T04:45:29Z
2019-08-06T02:48:12Z,42.805,6.029,13.2961,4.59973,2469.937,2019-8-06T04:48:32Z
2019-08-06T02:51:15Z,42.805,6.029,13.2962,4.59966,2469.923,2019-8-06T04:51:35Z
2019-08-06T02:54:18Z,42.805,6.029,13.2964,4.59965,2469.9,2019-8-06T04:54:38Z
2019-08-06T02:57:22Z,42.805,6.029,13.2957,4.59966,2469.9,2019-8-06T04:57:42Z
2019-08-06T03:00:25Z,42.805,6.029,13.2961,4.59966,2469.89,2019-8-06T05:00:45Z
2019-08-06T03:03:28Z,42.805,6.029,13.2974,4.59972,2469.876,2019-8-06T05:03:48Z
2019-08-06T03:06:32Z,42.805,6.029,13.2961,4.59967,2469.914,2019-8-06T05:06:52Z
2019-08-06T03:09:35Z,42.805,6.029,13.2961,4.59968,2469.9,2019-8-06T05:09:55Z
2019-08-06T03:12:38Z,42.805,6.029,13.2964,4.59991,2469.89,2019-8-06T05:12:58Z
2019-08-06T03:15:41Z,42.805,6.029,13.2964,4.59973,2469.89,2019-8-06T05:16:01Z
2019-08-06T03:18:45Z,42.805,6.029,13.2958,4.59976,2469.89,2019-8-06T05:19:05Z
2019-08-06T03:21:48Z,42.805,6.029,13.2967,4.59983,2469.9,2019-8-06T05:22:08Z
2019-08-06T03:24:51Z,42.805,6.029,13.2958,4.59971,2469.876,2019-8-06T05:25:11Z
2019-08-06T03:27:55Z,42.805,6.029,13.2960,4.59968,2469.876,2019-8-06T05:28:15Z
2019-08-06T03:30:58Z,42.805,6.029,13.2958,4.59964,2469.9,2019-8-06T05:31:18Z
2019-08-06T03:34:01Z,42.805,6.029,13.2962,4.59964,2469.9,2019-8-06T05:34:21Z
2019-08-06T03:37:05Z,42.805,6.029,13.2963,4.59985,2469.876,2019-8-06T05:37:25Z
2019-08-06T03:40:08Z,42.805,6.029,13.2957,4.59966,2469.867,2019-8-06T05:40:28Z
2019-08-06T03:43:11Z,42.805,6.029,13.2961,4.59964,2469.876,2019-8-06T05:43:31Z
2019-08-06T03:46:15Z,42.805,6.029,13.2967,4.59968,2469.876,2019-8-06T05:46:35Z
2019-08-06T03:49:18Z,42.805,6.029,13.2965,4.59981,2469.867,2019-8-06T05:49:38Z
2019-08-06T03:52:21Z,42.805,6.029,13.2961,4.59966,2469.83,2019-8-06T05:52:41Z
2019-08-06T03:55:25Z,42.805,6.029,13.2962,4.59968,2469.853,2019-8-06T05:55:45Z
2019-08-06T03:58:28Z,42.805,6.029,13.2958,4.59965,2469.83,2019-8-06T05:58:48Z
2019-08-06T04:01:31Z,42.805,6.029,13.2957,4.59971,2469.867,2019-8-06T06:01:51Z
2019-08-06T04:04:34Z,42.805,6.029,13.2961,4.59971,2469.89,2019-8-06T06:04:54Z
2019-08-06T04:07:38Z,42.805,6.029,13.2961,4.59965,2469.853,2019-8-06T06:07:58Z
2019-08-06T04:10:41Z,42.805,6.029,13.2960,4.59963,2469.83,2019-8-06T06:11:01Z
2019-08-06T04:13:44Z,42.805,6.029,13.2969,4.59968,2469.876,2019-8-06T06:14:04Z
2019-08-06T04:16:48Z,42.805,6.029,13.2961,4.59967,2469.844,2019-8-06T06:17:08Z
2019-08-06T04:19:51Z,42.805,6.029,13.2958,4.59969,2469.853,2019-8-06T06:20:11Z
2019-08-06T04:22:54Z,42.805,6.029,13.2961,4.59970,2469.89,2019-8-06T06:23:14Z
2019-08-06T04:25:57Z,42.805,6.029,13.2958,4.59967,2469.83,2019-8-06T06:26:17Z
2019-08-06T04:29:01Z,42.805,6.029,13.2964,4.59979,2469.853,2019-8-06T06:29:21Z
2019-08-06T04:32:04Z,42.805,6.029,13.2961,4.59964,2469.853,2019-8-06T06:32:24Z
2019-08-06T04:35:07Z,42.805,6.029,13.2962,4.59965,2469.83,2019-8-06T06:35:27Z
2019-08-06T04:38:11Z,42.805,6.029,13.2961,4.59971,2469.806,2019-8-06T06:38:31Z
2019-08-06T04:41:14Z,42.805,6.029,13.2961,4.59965,2469.867,2019-8-06T06:41:34Z
2019-08-06T04:44:17Z,42.805,6.029,13.2961,4.59964,2469.853,2019-8-06T06:44:37Z
2019-08-06T04:47:20Z,42.805,6.029,13.2969,4.59968,2469.806,2019-8-06T06:47:40Z
2019-08-06T04:50:24Z,42.805,6.029,13.2968,4.59968,2469.853,2019-8-06T06:50:44Z
2019-08-06T04:53:27Z,42.805,6.029,13.2964,4.59969,2469.844,2019-8-06T06:53:47Z
2019-08-06T04:56:30Z,42.805,6.029,13.2975,4.59994,2469.797,2019-8-06T06:56:50Z
2019-08-06T04:59:33Z,42.805,6.029,13.2959,4.59967,2469.83,2019-8-06T06:59:53Z
2019-08-06T05:02:37Z,42.805,6.029,13.2963,4.59973,2469.844,2019-8-06T07:02:57Z
2019-08-06T05:05:40Z,42.805,6.029,13.2961,4.59967,2469.806,2019-8-06T07:06:00Z
2019-08-06T05:08:43Z,42.805,6.029,13.2971,4.59978,2469.844,2019-8-06T07:09:03Z
2019-08-06T05:11:46Z,42.805,6.029,13.2958,4.59973,2469.844,2019-8-06T07:12:07Z
2019-08-06T05:14:50Z,42.805,6.029,13.2967,4.59983,2469.797,2019-8-06T07:15:10Z
2019-08-06T05:17:53Z,42.805,6.029,13.2964,4.59967,2469.797,2019-8-06T07:18:13Z
2019-08-06T05:20:57Z,42.805,6.029,13.2965,4.59968,2469.821,2019-8-06T07:21:17Z
2019-08-06T05:24:00Z,42.805,6.029,13.2969,4.59973,2469.821,2019-8-06T07:24:20Z
2019-08-06T05:27:03Z,42.805,6.029,13.2964,4.59975,2469.797,2019-8-06T07:27:23Z
2019-08-06T05:30:07Z,42.805,6.029,13.2965,4.59971,2469.797,2019-8-06T07:30:27Z
2019-08-06T05:33:10Z,42.805,6.029,13.2958,4.59965,2469.806,2019-8-06T07:33:30Z
2019-08-06T05:36:13Z,42.805,6.029,13.2962,4.59967,2469.806,2019-8-06T07:36:33Z
2019-08-06T05:39:16Z,42.805,6.029,13.2966,4.59989,2469.783,2019-8-06T07:39:36Z
2019-08-06T05:42:20Z,42.805,6.029,13.2968,4.59976,2469.797,2019-8-06T07:42:40Z
2019-08-06T05:45:23Z,42.805,6.029,13.2962,4.59966,2469.783,2019-8-06T07:45:43Z
2019-08-06T05:48:26Z,42.805,6.029,13.2964,4.59966,2469.83,2019-8-06T07:48:46Z
2019-08-06T05:51:29Z,42.805,6.029,13.2964,4.59971,2469.773,2019-8-06T07:51:49Z
2019-08-06T05:54:33Z,42.805,6.029,13.2963,4.59972,2469.821,2019-8-06T07:54:53Z
2019-08-06T05:57:36Z,42.805,6.029,13.2960,4.59967,2469.797,2019-8-06T07:57:56Z
2019-08-06T06:00:39Z,42.805,6.029,13.2961,4.59967,2469.806,2019-8-06T08:00:59Z
2019-08-06T06:03:43Z,42.805,6.029,13.2959,4.59963,2469.806,2019-8-06T08:04:03Z
2019-08-06T06:06:46Z,42.805,6.029,13.2967,4.59981,2469.806,2019-8-06T08:07:06Z
2019-08-06T06:09:49Z,42.805,6.029,13.2963,4.59966,2469.806,2019-8-06T08:10:09Z
2019-08-06T06:12:52Z,42.805,6.029,13.2967,4.59967,2469.821,2019-8-06T08:13:12Z
2019-08-06T06:15:56Z,42.805,6.029,13.2967,4.59972,2469.806,2019-8-06T08:16:16Z
2019-08-06T06:18:59Z,42.805,6.029,13.2964,4.59971,2469.797,2019-8-06T08:19:19Z
2019-08-06T06:22:02Z,42.805,6.029,13.2963,4.59975,2469.806,2019-8-06T08:22:22Z
2019-08-06T06:25:06Z,42.805,6.029,13.2970,4.59973,2469.83,2019-8-06T08:25:26Z
2019-08-06T06:28:09Z,42.805,6.029,13.2961,4.59971,2469.821,2019-8-06T08:28:29Z
2019-08-06T06:31:12Z,42.805,6.029,13.2960,4.59966,2469.806,2019-8-06T08:31:32Z
2019-08-06T06:34:15Z,42.805,6.029,13.2961,4.59970,2469.797,2019-8-06T08:34:35Z
2019-08-06T06:37:19Z,42.805,6.029,13.2964,4.59966,2469.797,2019-8-06T08:37:39Z
2019-08-06T06:40:22Z,42.805,6.029,13.2964,4.59969,2469.83,2019-8-06T08:40:42Z
2019-08-06T06:43:25Z,42.805,6.029,13.2963,4.59979,2469.821,2019-8-06T08:43:45Z
2019-08-06T06:46:29Z,42.805,6.029,13.2961,4.59979,2469.83,2019-8-06T08:46:49Z
2019-08-06T06:49:32Z,42.805,6.029,13.2961,4.59964,2469.783,2019-8-06T08:49:52Z
2019-08-06T06:52:35Z,42.805,6.029,13.2958,4.59966,2469.806,2019-8-06T08:52:55Z
2019-08-06T06:55:38Z,42.805,6.029,13.2964,4.59969,2469.806,2019-8-06T08:55:58Z
2019-08-06T06:58:42Z,42.805,6.029,13.2958,4.59966,2469.821,2019-8-06T08:59:02Z
2019-08-06T07:01:45Z,42.805,6.029,13.2959,4.59964,2469.806,2019-8-06T09:02:05Z
2019-08-06T07:04:49Z,42.805,6.029,13.2961,4.59967,2469.806,2019-8-06T09:05:09Z
2019-08-06T07:07:52Z,42.805,6.029,13.2958,4.59982,2469.821,2019-8-06T09:08:12Z
2019-08-06T07:10:55Z,42.805,6.029,13.2959,4.59973,2469.783,2019-8-06T09:11:15Z
2019-08-06T07:13:58Z,42.805,6.029,13.2963,4.59965,2469.797,2019-8-06T09:14:18Z
2019-08-06T07:17:02Z,42.805,6.029,13.2963,4.59966,2469.806,2019-8-06T09:17:22Z
2019-08-06T07:20:05Z,42.805,6.029,13.2958,4.59969,2469.783,2019-8-06T09:20:25Z
2019-08-06T07:23:08Z,42.805,6.029,13.2959,4.59964,2469.821,2019-8-06T09:23:28Z
2019-08-06T07:26:12Z,42.805,6.029,13.2973,4.59981,2469.783,2019-8-06T09:26:32Z
2019-08-06T07:29:15Z,42.805,6.029,13.2963,4.59967,2469.821,2019-8-06T09:29:35Z
2019-08-06T07:32:18Z,42.805,6.029,13.2960,4.59976,2469.83,2019-8-06T09:32:38Z
2019-08-06T07:35:21Z,42.805,6.029,13.2965,4.59965,2469.844,2019-8-06T09:35:41Z
2019-08-06T07:38:25Z,42.805,6.029,13.2960,4.59964,2469.806,2019-8-06T09:38:45Z
2019-08-06T07:41:28Z,42.805,6.029,13.2960,4.59967,2469.844,2019-8-06T09:41:48Z
2019-08-06T07:44:31Z,42.805,6.029,13.2965,4.59967,2469.806,2019-8-06T09:44:51Z
2019-08-06T07:47:35Z,42.805,6.029,13.2962,4.59961,2469.83,2019-8-06T09:47:55Z
2019-08-06T07:50:38Z,42.805,6.029,13.2962,4.59967,2469.867,2019-8-06T09:50:58Z
2019-08-06T07:53:41Z,42.805,6.029,13.2959,4.59964,2469.83,2019-8-06T09:54:01Z
2019-08-06T07:56:45Z,42.805,6.029,13.2958,4.59968,2469.844,2019-8-06T09:57:05Z
2019-08-06T07:59:48Z,42.805,6.029,13.2961,4.59968,2469.853,2019-8-06T10:00:08Z
2019-08-06T08:02:52Z,42.805,6.029,13.2958,4.59967,2469.83,2019-8-06T10:03:12Z
2019-08-06T08:05:55Z,42.805,6.029,13.2964,4.59964,2469.867,2019-8-06T10:06:15Z
2019-08-06T08:08:58Z,42.805,6.029,13.2965,4.59969,2469.853,2019-8-06T10:09:18Z
2019-08-06T08:12:01Z,42.805,6.029,13.2962,4.59966,2469.83,2019-8-06T10:12:21Z
2019-08-06T08:15:05Z,42.805,6.029,13.2959,4.59964,2469.83,2019-8-06T10:15:25Z
2019-08-06T08:18:08Z,42.805,6.029,13.2958,4.59964,2469.83,2019-8-06T10:18:28Z
2019-08-06T08:21:11Z,42.805,6.029,13.2960,4.59964,2469.867,2019-8-06T10:21:31Z
2019-08-06T08:24:14Z,42.805,6.029,13.2960,4.59973,2469.89,2019-8-06T10:24:34Z
2019-08-06T08:27:18Z,42.805,6.029,13.2959,4.59966,2469.914,2019-8-06T10:27:38Z
2019-08-06T08:30:21Z,42.805,6.029,13.2957,4.59968,2469.853,2019-8-06T10:30:41Z
2019-08-06T08:33:24Z,42.805,6.029,13.2961,4.59966,2469.83,2019-8-06T10:33:44Z
2019-08-06T08:36:28Z,42.805,6.029,13.2959,4.59966,2469.876,2019-8-06T10:36:48Z
2019-08-06T08:39:31Z,42.805,6.029,13.2966,4.59979,2469.89,2019-8-06T10:39:51Z
2019-08-06T08:42:34Z,42.805,6.029,13.2962,4.59983,2469.914,2019-8-06T10:42:54Z
2019-08-06T08:45:38Z,42.805,6.029,13.2957,4.59973,2469.9,2019-8-06T10:45:58Z
2019-08-06T08:48:41Z,42.805,6.029,13.2964,4.59966,2469.914,2019-8-06T10:49:01Z
2019-08-06T08:51:44Z,42.805,6.029,13.2967,4.59972,2469.9,2019-8-06T10:52:04Z
2019-08-06T08:54:47Z,42.805,6.029,13.2961,4.59966,2469.89,2019-8-06T10:55:07Z
2019-08-06T08:57:51Z,42.805,6.029,13.2967,4.59968,2469.923,2019-8-06T10:58:11Z
2019-08-06T09:00:54Z,42.805,6.029,13.2964,4.59988,2469.914,2019-8-06T11:01:14Z
2019-08-06T09:03:57Z,42.805,6.029,13.2972,4.59976,2469.9,2019-8-06T11:04:17Z
2019-08-06T09:07:00Z,42.805,6.029,13.2966,4.59977,2469.9,2019-8-06T11:07:21Z
2019-08-06T09:10:04Z,42.805,6.029,13.2961,4.59966,2469.9,2019-8-06T11:10:24Z
2019-08-06T09:13:07Z,42.805,6.029,13.2958,4.59981,2469.89,2019-8-06T11:13:27Z
2019-08-06T09:16:10Z,42.805,6.029,13.2968,4.59981,2469.89,2019-8-06T11:16:30Z
2019-08-06T09:19:14Z,42.805,6.029,13.2957,4.59966,2469.937,2019-8-06T11:19:34Z
2019-08-06T09:22:17Z,42.805,6.029,13.2961,4.59970,2469.937,2019-8-06T11:22:37Z
2019-08-06T09:25:20Z,42.805,6.029,13.2964,4.59966,2469.937,2019-8-06T11:25:40Z
2019-08-06T09:28:23Z,42.805,6.029,13.2967,4.59982,2469.947,2019-8-06T11:28:43Z
2019-08-06T09:31:27Z,42.805,6.029,13.2959,4.59976,2469.937,2019-8-06T11:31:47Z
2019-08-06T09:34:30Z,42.805,6.029,13.2963,4.59971,2469.914,2019-8-06T11:34:50Z
2019-08-06T09:37:33Z,42.805,6.029,13.2957,4.59971,2469.89,2019-8-06T11:37:53Z
2019-08-06T09:40:36Z,42.805,6.029,13.2963,4.59973,2469.923,2019-8-06T11:40:56Z
2019-08-06T09:43:39Z,42.805,6.029,13.2960,4.59972,2469.914,2019-8-06T11:43:59Z
2019-08-06T09:46:43Z,42.805,6.029,13.2965,4.59973,2469.937,2019-8-06T11:47:03Z
2019-08-06T09:49:46Z,42.805,6.029,13.2962,4.59970,2469.947,2019-8-06T11:50:06Z
2019-08-06T09:52:49Z,42.805,6.029,13.2965,4.59982,2469.937,2019-8-06T11:53:09Z
2019-08-06T09:55:52Z,42.805,6.029,13.2958,4.59968,2469.937,2019-8-06T11:56:12Z
2019-08-06T09:58:55Z,42.805,6.029,13.2964,4.59966,2469.923,2019-8-06T11:59:15Z
2019-08-06T10:01:59Z,42.805,6.029,13.2964,4.59966,2469.97,2019-8-06T12:02:19Z
2019-08-06T10:05:02Z,42.805,6.029,13.2958,4.59974,2469.937,2019-8-06T12:05:22Z
2019-08-06T10:08:05Z,42.805,6.029,13.2961,4.59969,2469.923,2019-8-06T12:08:25Z
2019-08-06T10:11:08Z,42.805,6.029,13.2960,4.59970,2469.947,2019-8-06T12:11:28Z
2019-08-06T10:14:11Z,42.805,6.029,13.2964,4.59967,2469.97,2019-8-06T12:14:31Z
2019-08-06T10:17:15Z,42.805,6.029,13.2962,4.59966,2469.923,2019-8-06T12:17:35Z
2019-08-06T10:20:18Z,42.805,6.029,13.2965,4.59973,2469.96,2019-8-06T12:20:38Z
2019-08-06T10:23:21Z,42.805,6.029,13.2958,4.59967,2469.97,2019-8-06T12:23:41Z
2019-08-06T10:26:24Z,42.805,6.029,13.2967,4.59968,2469.96,2019-8-06T12:26:44Z
2019-08-06T10:29:27Z,42.805,6.029,13.2961,4.59985,2469.947,2019-8-06T12:29:47Z
2019-08-06T10:32:30Z,42.805,6.029,13.2964,4.59970,2469.947,2019-8-06T12:32:51Z
2019-08-06T10:35:34Z,42.805,6.029,13.2961,4.59971,2469.947,2019-8-06T12:35:54Z
2019-08-06T10:38:37Z,42.805,6.029,13.2967,4.59975,2469.947,2019-8-06T12:38:57Z
2019-08-06T10:41:40Z,42.805,6.029,13.2962,4.59976,2469.9,2019-8-06T12:42:00Z
2019-08-06T10:44:43Z,42.805,6.029,13.2963,4.59965,2469.923,2019-8-06T12:45:03Z
2019-08-06T10:47:46Z,42.805,6.029,13.2961,4.59973,2469.96,2019-8-06T12:48:06Z
2019-08-06T10:50:50Z,42.805,6.029,13.2968,4.59984,2469.914,2019-8-06T12:51:10Z
2019-08-06T10:53:53Z,42.805,6.029,13.2961,4.59973,2469.937,2019-8-06T12:54:13Z
2019-08-06T10:56:56Z,42.805,6.029,13.2965,4.59978,2469.937,2019-8-06T12:57:16Z
2019-08-06T10:59:59Z,42.805,6.029,13.2963,4.59967,2469.96,2019-8-06T13:00:19Z
2019-08-06T11:03:02Z,42.805,6.029,13.2961,4.59970,2469.923,2019-8-06T13:03:22Z
2019-08-06T11:06:06Z,42.805,6.029,13.2966,4.59969,2469.937,2019-8-06T13:06:26Z
2019-08-06T11:09:09Z,42.805,6.029,13.2965,4.59972,2469.923,2019-8-06T13:09:29Z
2019-08-06T11:12:12Z,42.805,6.029,13.2962,4.59971,2469.937,2019-8-06T13:12:32Z
2019-08-06T11:15:16Z,42.805,6.029,13.2964,4.59969,2469.937,2019-8-06T13:15:36Z
2019-08-06T11:18:19Z,42.805,6.029,13.2957,4.59968,2469.923,2019-8-06T13:18:39Z
2019-08-06T11:21:22Z,42.805,6.029,13.2964,4.59965,2469.96,2019-8-06T13:21:42Z
2019-08-06T11:24:26Z,42.805,6.029,13.2961,4.59971,2469.914,2019-8-06T13:24:46Z
2019-08-06T11:27:29Z,42.805,6.029,13.2965,4.59970,2469.947,2019-8-06T13:27:49Z
2019-08-06T11:30:32Z,42.805,6.029,13.2960,4.59969,2469.914,2019-8-06T13:30:52Z
2019-08-06T11:33:35Z,42.805,6.029,13.2964,4.59973,2469.923,2019-8-06T13:33:55Z
2019-08-06T11:36:39Z,42.805,6.029,13.2962,4.59979,2469.937,2019-8-06T13:36:59Z
2019-08-06T11:39:42Z,42.805,6.029,13.2957,4.59971,2469.984,2019-8-06T13:40:02Z
2019-08-06T11:42:45Z,42.805,6.029,13.2967,4.59980,2469.923,2019-8-06T13:43:05Z
2019-08-06T11:45:48Z,42.805,6.029,13.2968,4.59976,2469.923,2019-8-06T13:46:08Z
2019-08-06T11:48:52Z,42.805,6.029,13.2967,4.59982,2469.876,2019-8-06T13:49:12Z
2019-08-06T11:51:55Z,42.805,6.029,13.2958,4.59978,2469.923,2019-8-06T13:52:15Z
2019-08-06T11:54:58Z,42.805,6.029,13.2978,4.60009,2469.923,2019-8-06T13:55:18Z
2019-08-06T11:58:02Z,42.805,6.029,13.2959,4.59975,2469.923,2019-8-06T13:58:22Z
2019-08-06T12:01:05Z,42.805,6.029,13.2957,4.59971,2469.937,2019-8-06T14:01:25Z
2019-08-06T12:04:08Z,42.805,6.029,13.2961,4.59972,2469.9,2019-8-06T14:04:28Z
2019-08-06T12:07:11Z,42.805,6.029,13.2958,4.59970,2469.9,2019-8-06T14:07:31Z
2019-08-06T12:10:15Z,42.805,6.029,13.2963,4.59967,2469.876,2019-8-06T14:10:35Z
2019-08-06T12:13:18Z,42.805,6.029,13.2963,4.59976,2469.914,2019-8-06T14:13:38Z
2019-08-06T12:16:21Z,42.805,6.029,13.2958,4.59966,2469.9,2019-8-06T14:16:41Z
2019-08-06T12:19:25Z,42.805,6.029,13.2957,4.59964,2469.9,2019-8-06T14:19:45Z
2019-08-06T12:22:28Z,42.805,6.029,13.2963,4.59970,2469.9,2019-8-06T14:22:48Z
2019-08-06T12:25:31Z,42.805,6.029,13.2960,4.59984,2469.914,2019-8-06T14:25:51Z
2019-08-06T12:28:34Z,42.805,6.029,13.2964,4.59966,2469.937,2019-8-06T14:28:54Z
2019-08-06T12:31:38Z,42.805,6.029,13.2965,4.59972,2469.951,2019-8-06T14:31:58Z
2019-08-06T12:34:41Z,42.805,6.029,13.2966,4.59995,2469.923,2019-8-06T14:35:01Z
2019-08-06T12:37:44Z,42.805,6.029,13.2970,4.59988,2469.914,2019-8-06T14:38:04Z
2019-08-06T12:40:48Z,42.805,6.029,13.2967,4.59972,2469.876,2019-8-06T14:41:08Z
2019-08-06T12:43:51Z,42.805,6.029,13.2965,4.59976,2469.923,2019-8-06T14:44:11Z
2019-08-06T12:46:54Z,42.805,6.029,13.2961,4.59975,2469.9,2019-8-06T14:47:14Z
2019-08-06T12:49:57Z,42.805,6.029,13.2960,4.59972,2469.923,2019-8-06T14:50:17Z
2019-08-06T12:53:01Z,42.805,6.029,13.2961,4.59971,2469.9,2019-8-06T14:53:21Z
2019-08-06T12:56:04Z,42.805,6.029,13.2964,4.59967,2469.9,2019-8-06T14:56:24Z
2019-08-06T12:59:07Z,42.805,6.029,13.2967,4.59969,2469.9,2019-8-06T14:59:27Z
2019-08-06T13:02:11Z,42.805,6.029,13.2967,4.59966,2469.914,2019-8-06T15:02:31Z
2019-08-06T13:05:14Z,42.805,6.029,13.2959,4.59976,2469.923,2019-8-06T15:05:34Z
2019-08-06T13:08:17Z,42.805,6.029,13.2960,4.59964,2469.876,2019-8-06T15:08:37Z
2019-08-06T13:11:20Z,42.805,6.029,13.2960,4.59971,2469.9,2019-8-06T15:11:41Z
2019-08-06T13:14:24Z,42.805,6.029,13.2964,4.59979,2469.876,2019-8-06T15:14:44Z
2019-08-06T13:17:27Z,42.805,6.029,13.2965,4.59973,2469.914,2019-8-06T15:17:47Z
2019-08-06T13:20:30Z,42.805,6.029,13.2965,4.59972,2469.876,2019-8-06T15:20:50Z
2019-08-06T13:23:33Z,42.805,6.029,13.2960,4.59965,2469.914,2019-8-06T15:23:53Z
2019-08-06T13:26:37Z,42.805,6.029,13.2957,4.59967,2469.89,2019-8-06T15:26:57Z
2019-08-06T13:29:40Z,42.805,6.029,13.2964,4.59981,2469.923,2019-8-06T15:30:00Z
2019-08-06T13:32:43Z,42.805,6.029,13.2960,4.59968,2469.876,2019-8-06T15:33:03Z
2019-08-06T13:35:47Z,42.805,6.029,13.2961,4.59973,2469.9,2019-8-06T15:36:07Z
2019-08-06T13:38:50Z,42.805,6.029,13.2961,4.59979,2469.9,2019-8-06T15:39:10Z
2019-08-06T13:41:53Z,42.805,6.029,13.2964,4.59973,2469.9,2019-8-06T15:42:13Z
2019-08-06T13:44:56Z,42.805,6.029,13.2958,4.59964,2469.876,2019-8-06T15:45:16Z
2019-08-06T13:48:00Z,42.805,6.029,13.2961,4.59972,2469.914,2019-8-06T15:48:20Z
2019-08-06T13:51:03Z,42.805,6.029,13.2962,4.59981,2469.867,2019-8-06T15:51:23Z
2019-08-06T13:54:06Z,42.805,6.029,13.2962,4.59966,2469.867,2019-8-06T15:54:26Z
2019-08-06T13:57:10Z,42.805,6.029,13.2963,4.59967,2469.876,2019-8-06T15:57:30Z
2019-08-06T14:00:13Z,42.805,6.029,13.2963,4.59971,2469.876,2019-8-06T16:00:33Z
2019-08-06T14:03:16Z,42.805,6.029,13.2967,4.59976,2469.876,2019-8-06T16:03:36Z
2019-08-06T14:06:19Z,42.805,6.029,13.2961,4.59965,2469.876,2019-8-06T16:06:40Z
2019-08-06T14:09:23Z,42.805,6.029,13.2963,4.59965,2469.89,2019-8-06T16:09:43Z
2019-08-06T14:12:26Z,42.805,6.029,13.2958,4.59963,2469.853,2019-8-06T16:12:46Z
2019-08-06T14:15:29Z,42.805,6.029,13.2958,4.59967,2469.867,2019-8-06T16:15:49Z
2019-08-06T14:18:33Z,42.805,6.029,13.2962,4.59971,2469.853,2019-8-06T16:18:53Z
2019-08-06T14:21:36Z,42.805,6.029,13.2961,4.59969,2469.89,2019-8-06T16:21:56Z
2019-08-06T14:24:40Z,42.805,6.029,13.2964,4.59973,2469.867,2019-8-06T16:25:00Z
2019-08-06T14:27:43Z,42.805,6.029,13.2959,4.59966,2469.83,2019-8-06T16:28:03Z
2019-08-06T14:30:46Z,42.805,6.029,13.2966,4.59969,2469.853,2019-8-06T16:31:06Z
2019-08-06T14:33:49Z,42.805,6.029,13.2958,4.59971,2469.876,2019-8-06T16:34:09Z
2019-08-06T14:36:53Z,42.805,6.029,13.2965,4.59970,2469.89,2019-8-06T16:37:13Z
2019-08-06T14:39:56Z,42.805,6.029,13.2964,4.59967,2469.853,2019-8-06T16:40:16Z
2019-08-06T14:42:59Z,42.805,6.029,13.2957,4.59967,2469.853,2019-8-06T16:43:20Z
2019-08-06T14:46:03Z,42.805,6.029,13.2958,4.59969,2469.876,2019-8-06T16:46:23Z
2019-08-06T14:49:06Z,42.805,6.029,13.2965,4.59976,2469.853,2019-8-06T16:49:26Z
2019-08-06T14:52:10Z,42.805,6.029,13.2969,4.59971,2469.853,2019-8-06T16:52:30Z
2019-08-06T14:55:13Z,42.805,6.029,13.2965,4.59968,2469.867,2019-8-06T16:55:33Z
2019-08-06T14:58:16Z,42.805,6.029,13.2964,4.59980,2469.844,2019-8-06T16:58:36Z
2019-08-06T15:01:20Z,42.805,6.029,13.2957,4.59966,2469.867,2019-8-06T17:01:40Z
2019-08-06T15:04:23Z,42.805,6.029,13.2964,4.59967,2469.83,2019-8-06T17:04:43Z
2019-08-06T15:07:26Z,42.805,6.029,13.2957,4.59966,2469.853,2019-8-06T17:07:46Z
2019-08-06T15:10:30Z,42.805,6.029,13.2967,4.59972,2469.853,2019-8-06T17:10:50Z
2019-08-06T15:13:33Z,42.805,6.029,13.2961,4.59966,2469.876,2019-8-06T17:13:53Z